User: anonymous   Login
Location: The Jewett Observatory
(46.7288°N, 117.1525°W)
Time: 12:19:42
(UTC-08:00)
Language:

Cosmos 1844 Rocket - Orbit

View from above orbital plane
View from above orbital plane
View from above satellite
View from above satellite

Ground track
Ground track

The orbit data is extracted from the following two-line orbital elements,

1 17974U 87041B   17022.10542569  .00000221  00000-0  13291-3 0  9996
2 17974  71.0059 217.6194 0016170 258.2232 240.7617 14.17215370535989
Epoch (UTC): 22 January 2017 02:31:48
Eccentricity: 0.0016170
inclination: 71.0059°
perigee height: 823 km
apogee height: 846 km
right ascension of ascending node: 217.6194°
argument of perigee: 258.2232°
revolutions per day: 14.17215370
mean anomaly at epoch: 240.7617°
orbit number at epoch: 53598

The dashed part of the orbit path shows where the satellite is in the earth's shadow,  

DLR